Overview Statistics Trail Chart Weather Telemetry Raw packets
 

This is the latest recevied weather packets stored in our database for station/object K1NOT-WX. If no packets are shown the sender has not sent any weather packets the latest 10 day(s).

<< 26 27 28 29 30 31 32 >>
Time Temp. Humidity Pressure Rain* Wind** Luminosity Snow
1777139832 12.78° C 54% 1004.7 hPa 0 mm - - -
1777138932 12.22° C 54% 1004.7 hPa 0 mm - - -
1777138032 12.78° C 52% 1004.4 hPa 0 mm - - -
1777137132 13.33° C 52% 1004.7 hPa 0 mm - - -
1777136232 12.78° C 54% 1004.7 hPa 0 mm - - -
1777135332 11.67° C 56% 1004.7 hPa 0 mm - - -
1777134432 12.22° C 55% 1005.1 hPa 0 mm - - -
1777133532 12.22° C 55% 1005.1 hPa 0 mm - - -
1777132632 11.67° C 56% 1005.1 hPa 0 mm - - -
1777131732 11.67° C 53% 1005.1 hPa 0 mm - - -
1777130832 10.56° C 57% 1005.4 hPa 0 mm - - -
1777129932 9.44° C 60% 1005.4 hPa 0 mm - - -
1777129032 10° C 62% 1005.4 hPa 0 mm - - -
1777128132 7.22° C 69% 1005.4 hPa 0 mm - - -
1777127232 7.78° C 72% 1005.8 hPa 0 mm - - -
1777126332 7.78° C 72% 1005.4 hPa 0 mm - - -
1777125432 6.11° C 80% 1005.4 hPa 0 mm - - -
1777124532 6.11° C 85% 1005.1 hPa 0 mm - - -
1777123632 5° C 84% 1005.1 hPa 0 mm - - -
1777122732 4.44° C 81% 1004.7 hPa 0 mm - - -
1777121832 5° C 87% 1005.1 hPa 0 mm - - -
1777120932 4.44° C 80% 1005.4 hPa 0 mm - - -
1777120032 5° C 79% 1005.4 hPa 0 mm - - -
1777119132 5.56° C 79% 1005.4 hPa 0 mm - - -
1777118232 4.44° C 82% 1005.4 hPa 0 mm - - -

* Rain latest hour (hover to see other rain measurements)
** Current wind speed in m/s (hover to see current wind gust speed)